Time,TemperatureF,DewpointF,PressureIn,WindDirection,WindDirectionDegrees,WindSpeedMPH,WindSpeedGustMPH,Humidity,HourlyPrecipIn,Conditions,Clouds,dailyrainin,SoftwareType,DateUTC
2013-09-20 00:00:00,-999.0,-99.9,29.82,North,10,9.0,-999.0,-999,-99.99,,,-99.99,,2013-09-20 08:00:00,
2013-09-20 00:22:00,-999.0,-99.9,29.82,North,10,9.0,-999.0,-999,-99.99,,,-99.99,,2013-09-20 08:22:00,
2013-09-20 00:32:00,-999.0,-99.9,29.82,North,10,9.0,-999.0,-999,-99.99,,,-99.99,,2013-09-20 08:32:00,
2013-09-20 00:42:00,-999.0,-99.9,29.82,North,10,9.0,-999.0,-999,-99.99,,,-99.99,,2013-09-20 08:42:00,
2013-09-20 00:52:00,-999.0,-99.9,29.82,North,10,9.0,-999.0,-999,-99.99,,,-99.99,,2013-09-20 08:52:00,
2013-09-20 01:00:00,-999.0,-99.9,29.80,North,10,8.0,-999.0,-999,-99.99,,,-99.99,,2013-09-20 09:00:00,
2013-09-20 01:22:00,-999.0,-99.9,29.80,North,10,8.0,-999.0,-999,-99.99,,,-99.99,,2013-09-20 09:22:00,
2013-09-20 01:33:00,-999.0,-99.9,29.80,North,10,8.0,-999.0,-999,-99.99,,,-99.99,,2013-09-20 09:33:00,
2013-09-20 01:44:00,-999.0,-99.9,29.80,North,10,8.0,-999.0,-999,-99.99,,,-99.99,,2013-09-20 09:44:00,
2013-09-20 01:54:00,-999.0,-99.9,29.80,North,10,8.0,-999.0,-999,-99.99,,,-99.99,,2013-09-20 09:54:00,
2013-09-20 02:00:00,-999.0,-99.9,29.76,North,10,7.0,-999.0,-999,-99.99,,,-99.99,,2013-09-20 10:00:00,
2013-09-20 02:23:00,-999.0,-99.9,29.76,North,10,7.0,-999.0,-999,-99.99,,,-99.99,,2013-09-20 10:23:00,
2013-09-20 02:32:00,-999.0,-99.9,29.76,North,10,7.0,-999.0,-999,-99.99,,,-99.99,,2013-09-20 10:32:00,
2013-09-20 02:42:00,-999.0,-99.9,29.76,North,10,7.0,-999.0,-999,-99.99,,,-99.99,,2013-09-20 10:42:00,
2013-09-20 02:53:00,-999.0,-99.9,29.76,North,10,7.0,-999.0,-999,-99.99,,,-99.99,,2013-09-20 10:53:00,
2013-09-20 03:00:00,-999.0,-99.9,29.74,North,10,7.0,-999.0,-999,-99.99,,,-99.99,,2013-09-20 11:00:00,
2013-09-20 03:23:00,-999.0,-99.9,29.74,North,10,7.0,-999.0,-999,-99.99,,,-99.99,,2013-09-20 11:23:00,
2013-09-20 03:33:00,-999.0,-99.9,29.74,North,10,7.0,-999.0,-999,-99.99,,,-99.99,,2013-09-20 11:33:00,
2013-09-20 03:42:00,-999.0,-99.9,29.74,North,10,7.0,-999.0,-999,-99.99,,,-99.99,,2013-09-20 11:42:00,
2013-09-20 03:52:00,-999.0,-99.9,29.74,North,10,7.0,-999.0,-999,-99.99,,,-99.99,,2013-09-20 11:52:00,
2013-09-20 04:00:00,-999.0,-99.9,29.72,North,360,3.0,-999.0,-999,-99.99,,,-99.99,,2013-09-20 12:00:00,
2013-09-20 04:22:00,-999.0,-99.9,29.72,North,360,3.0,-999.0,-999,-99.99,,,-99.99,,2013-09-20 12:22:00,
2013-09-20 04:32:00,-999.0,-99.9,29.72,North,360,3.0,-999.0,-999,-99.99,,,-99.99,,2013-09-20 12:32:00,
2013-09-20 04:43:00,-999.0,-99.9,29.72,North,360,3.0,-999.0,-999,-99.99,,,-99.99,,2013-09-20 12:43:00,
2013-09-20 04:52:00,-999.0,-99.9,29.72,North,360,3.0,-999.0,-999,-99.99,,,-99.99,,2013-09-20 12:52:00,
2013-09-20 05:00:00,-999.0,-99.9,29.67,North,10,6.0,-999.0,-999,-99.99,,,-99.99,,2013-09-20 13:00:00,
2013-09-20 05:22:00,-999.0,-99.9,29.67,North,10,6.0,-999.0,-999,-99.99,,,-99.99,,2013-09-20 13:22:00,
2013-09-20 05:32:00,-999.0,-99.9,29.67,North,10,6.0,-999.0,-999,-99.99,,,-99.99,,2013-09-20 13:32:00,
2013-09-20 05:42:00,-999.0,-99.9,29.67,North,10,6.0,-999.0,-999,-99.99,,,-99.99,,2013-09-20 13:42:00,
2013-09-20 05:53:00,-999.0,-99.9,29.67,North,10,6.0,-999.0,-999,-99.99,,,-99.99,,2013-09-20 13:53:00,
2013-09-20 06:00:00,-999.0,-99.9,29.60,NNE,20,17.0,-999.0,-999,-99.99,,,-99.99,,2013-09-20 14:00:00,
2013-09-20 06:22:00,-999.0,-99.9,29.60,NNE,20,17.0,-999.0,-999,-99.99,,,-99.99,,2013-09-20 14:22:00,
2013-09-20 06:32:00,-999.0,-99.9,29.60,NNE,20,17.0,-999.0,-999,-99.99,,,-99.99,,2013-09-20 14:32:00,
2013-09-20 06:42:00,-999.0,-99.9,29.60,NNE,20,17.0,-999.0,-999,-99.99,,,-99.99,,2013-09-20 14:42:00,
2013-09-20 06:52:00,-999.0,-99.9,29.60,NNE,20,17.0,-999.0,-999,-99.99,,,-99.99,,2013-09-20 14:52:00,
2013-09-20 07:00:00,-999.0,-99.9,29.54,NNE,20,21.0,-999.0,-999,-99.99,,,-99.99,,2013-09-20 15:00:00,
2013-09-20 07:22:00,-999.0,-99.9,29.54,NNE,20,21.0,-999.0,-999,-99.99,,,-99.99,,2013-09-20 15:22:00,
2013-09-20 07:33:00,-999.0,-99.9,29.54,NNE,20,21.0,-999.0,-999,-99.99,,,-99.99,,2013-09-20 15:33:00,
2013-09-20 07:44:00,-999.0,-99.9,29.54,NNE,20,21.0,-999.0,-999,-99.99,,,-99.99,,2013-09-20 15:44:00,
2013-09-20 07:54:00,-999.0,-99.9,29.54,NNE,20,21.0,-999.0,-999,-99.99,,,-99.99,,2013-09-20 15:54:00,
2013-09-20 08:00:00,-999.0,-99.9,29.45,NNE,20,25.0,-999.0,-999,-99.99,,,-99.99,,2013-09-20 16:00:00,
2013-09-20 08:23:00,-999.0,-99.9,29.45,NNE,20,25.0,-999.0,-999,-99.99,,,-99.99,,2013-09-20 16:23:00,
2013-09-20 08:43:00,-999.0,-99.9,29.45,NNE,20,25.0,-999.0,-999,-99.99,,,-99.99,,2013-09-20 16:43:00,
2013-09-20 08:53:00,-999.0,-99.9,29.45,NNE,20,25.0,-999.0,-999,-99.99,,,-99.99,,2013-09-20 16:53:00,
2013-09-20 09:00:00,-999.0,-99.9,29.38,NNE,20,29.0,-999.0,-999,-99.99,,,-99.99,,2013-09-20 17:00:00,
2013-09-20 09:24:00,-999.0,-99.9,29.38,NNE,20,29.0,-999.0,-999,-99.99,,,-99.99,,2013-09-20 17:24:00,
2013-09-20 09:34:00,-999.0,-99.9,29.38,NNE,20,29.0,-999.0,-999,-99.99,,,-99.99,,2013-09-20 17:34:00,
2013-09-20 09:43:00,-999.0,-99.9,29.38,NNE,20,29.0,-999.0,-999,-99.99,,,-99.99,,2013-09-20 17:43:00,
2013-09-20 09:53:00,-999.0,-99.9,29.38,NNE,20,29.0,-999.0,-999,-99.99,,,-99.99,,2013-09-20 17:53:00,
2013-09-20 10:00:00,-999.0,-99.9,29.34,NNE,20,22.0,-999.0,-999,-99.99,,,-99.99,,2013-09-20 18:00:00,
2013-09-20 10:22:00,-999.0,-99.9,29.34,NNE,20,22.0,-999.0,-999,-99.99,,,-99.99,,2013-09-20 18:22:00,
2013-09-20 10:32:00,-999.0,-99.9,29.34,NNE,20,22.0,-999.0,-999,-99.99,,,-99.99,,2013-09-20 18:32:00,
2013-09-20 10:42:00,-999.0,-99.9,29.34,NNE,20,22.0,-999.0,-999,-99.99,,,-99.99,,2013-09-20 18:42:00,
2013-09-20 10:52:00,-999.0,-99.9,29.34,NNE,20,22.0,-999.0,-999,-99.99,,,-99.99,,2013-09-20 18:52:00,
2013-09-20 11:00:00,-999.0,-99.9,29.22,NNE,30,31.0,-999.0,-999,-99.99,,,-99.99,,2013-09-20 19:00:00,
2013-09-20 11:22:00,-999.0,-99.9,29.22,NNE,30,31.0,-999.0,-999,-99.99,,,-99.99,,2013-09-20 19:22:00,
2013-09-20 11:32:00,-999.0,-99.9,29.22,NNE,30,31.0,-999.0,-999,-99.99,,,-99.99,,2013-09-20 19:32:00,
2013-09-20 11:42:00,-999.0,-99.9,29.22,NNE,30,31.0,-999.0,-999,-99.99,,,-99.99,,2013-09-20 19:42:00,
2013-09-20 11:53:00,-999.0,-99.9,29.22,NNE,30,31.0,-999.0,-999,-99.99,,,-99.99,,2013-09-20 19:53:00,
2013-09-20 12:00:00,-999.0,-99.9,29.08,NNE,30,32.0,-999.0,-999,-99.99,,,-99.99,,2013-09-20 20:00:00,
2013-09-20 12:22:00,-999.0,-99.9,29.08,NNE,30,32.0,-999.0,-999,-99.99,,,-99.99,,2013-09-20 20:22:00,
2013-09-20 12:32:00,-999.0,-99.9,29.08,NNE,30,32.0,-999.0,-999,-99.99,,,-99.99,,2013-09-20 20:32:00,
2013-09-20 12:42:00,-999.0,-99.9,29.08,NNE,30,32.0,-999.0,-999,-99.99,,,-99.99,,2013-09-20 20:42:00,
2013-09-20 12:52:00,-999.0,-99.9,29.08,NNE,30,32.0,-999.0,-999,-99.99,,,-99.99,,2013-09-20 20:52:00,
2013-09-20 13:00:00,-999.0,-99.9,28.93,NE,40,45.0,-999.0,-999,-99.99,,,-99.99,,2013-09-20 21:00:00,
2013-09-20 13:22:00,-999.0,-99.9,28.93,NE,40,45.0,-999.0,-999,-99.99,,,-99.99,,2013-09-20 21:22:00,
2013-09-20 13:34:00,-999.0,-99.9,28.93,NE,40,45.0,-999.0,-999,-99.99,,,-99.99,,2013-09-20 21:34:00,
2013-09-20 13:45:00,-999.0,-99.9,28.93,NE,40,45.0,-999.0,-999,-99.99,,,-99.99,,2013-09-20 21:45:00,
2013-09-20 13:55:00,-999.0,-99.9,28.93,NE,40,45.0,-999.0,-999,-99.99,,,-99.99,,2013-09-20 21:55:00,
2013-09-20 14:00:00,-999.0,-99.9,28.85,NNE,20,29.0,-999.0,-999,-99.99,,,-99.99,,2013-09-20 22:00:00,
2013-09-20 14:24:00,-999.0,-99.9,28.85,NNE,20,29.0,-999.0,-999,-99.99,,,-99.99,,2013-09-20 22:24:00,
2013-09-20 14:33:00,-999.0,-99.9,28.85,NNE,20,29.0,-999.0,-999,-99.99,,,-99.99,,2013-09-20 22:33:00,
2013-09-20 14:44:00,-999.0,-99.9,28.85,NNE,20,29.0,-999.0,-999,-99.99,,,-99.99,,2013-09-20 22:44:00,
2013-09-20 14:53:00,-999.0,-99.9,28.85,NNE,20,29.0,-999.0,-999,-99.99,,,-99.99,,2013-09-20 22:53:00,
2013-09-20 15:00:00,-999.0,-99.9,28.79,NNE,30,34.0,-999.0,-999,-99.99,,,-99.99,,2013-09-20 23:00:00,
2013-09-20 15:23:00,-999.0,-99.9,28.79,NNE,30,34.0,-999.0,-999,-99.99,,,-99.99,,2013-09-20 23:23:00,
2013-09-20 15:34:00,-999.0,-99.9,28.79,NNE,30,34.0,-999.0,-999,-99.99,,,-99.99,,2013-09-20 23:34:00,
2013-09-20 15:42:00,-999.0,-99.9,28.79,NNE,30,34.0,-999.0,-999,-99.99,,,-99.99,,2013-09-20 23:42:00,
2013-09-20 15:53:00,-999.0,-99.9,28.79,NNE,30,34.0,-999.0,-999,-99.99,,,-99.99,,2013-09-20 23:53:00,
2013-09-20 16:00:00,52.0,49.0,28.74,SSW,200,33.0,-999.0,90,-99.99,,,-99.99,,2013-09-21 00:00:00,
2013-09-20 16:22:00,-999.0,-99.9,28.75,NNE,20,29.0,-999.0,-999,-99.99,,,-99.99,,2013-09-21 00:22:00,
2013-09-20 16:41:00,52.0,49.0,28.74,SSW,200,33.0,-999.0,90,-99.99,,,-99.99,,2013-09-21 00:41:00,
2013-09-20 16:52:00,52.0,49.0,28.74,SSW,200,33.0,-999.0,90,-99.99,,,-99.99,,2013-09-21 00:52:00,
2013-09-20 17:00:00,-999.0,-99.9,28.66,NNE,20,18.0,-999.0,-999,-99.99,,,-99.99,,2013-09-21 01:00:00,
2013-09-20 17:22:00,-999.0,-99.9,28.66,NNE,20,18.0,-999.0,-999,-99.99,,,-99.99,,2013-09-21 01:22:00,
2013-09-20 17:32:00,-999.0,-99.9,28.66,NNE,20,18.0,-999.0,-999,-99.99,,,-99.99,,2013-09-21 01:32:00,
2013-09-20 17:42:00,-999.0,-99.9,28.66,NNE,20,18.0,-999.0,-999,-99.99,,,-99.99,,2013-09-21 01:42:00,
2013-09-20 17:52:00,-999.0,-99.9,28.66,NNE,20,18.0,-999.0,-999,-99.99,,,-99.99,,2013-09-21 01:52:00,
2013-09-20 18:00:00,-999.0,-99.9,28.66,North,10,13.0,-999.0,-999,-99.99,,,-99.99,,2013-09-21 02:00:00,
2013-09-20 18:42:00,-999.0,-99.9,28.66,North,10,13.0,-999.0,-999,-99.99,,,-99.99,,2013-09-21 02:42:00,
2013-09-20 18:52:00,-999.0,-99.9,28.66,North,10,13.0,-999.0,-999,-99.99,,,-99.99,,2013-09-21 02:52:00,
2013-09-20 19:00:00,-999.0,-99.9,28.64,North,360,2.0,-999.0,-999,-99.99,,,-99.99,,2013-09-21 03:00:00,
2013-09-20 19:22:00,-999.0,-99.9,28.64,North,360,2.0,-999.0,-999,-99.99,,,-99.99,,2013-09-21 03:22:00,
2013-09-20 19:34:00,-999.0,-99.9,28.64,North,360,2.0,-999.0,-999,-99.99,,,-99.99,,2013-09-21 03:34:00,
2013-09-20 19:44:00,-999.0,-99.9,28.64,North,360,2.0,-999.0,-999,-99.99,,,-99.99,,2013-09-21 03:44:00,
2013-09-20 19:55:00,-999.0,-99.9,28.64,North,360,2.0,-999.0,-999,-99.99,,,-99.99,,2013-09-21 03:55:00,
2013-09-20 20:00:00,-999.0,-99.9,28.63,North,10,6.0,-999.0,-999,-99.99,,,-99.99,,2013-09-21 04:00:00,
2013-09-20 20:24:00,-999.0,-99.9,28.63,North,10,6.0,-999.0,-999,-99.99,,,-99.99,,2013-09-21 04:24:00,
2013-09-20 20:34:00,-999.0,-99.9,28.63,North,10,6.0,-999.0,-999,-99.99,,,-99.99,,2013-09-21 04:34:00,
2013-09-20 20:44:00,-999.0,-99.9,28.63,North,10,6.0,-999.0,-999,-99.99,,,-99.99,,2013-09-21 04:44:00,
2013-09-20 20:54:00,-999.0,-99.9,28.63,North,10,6.0,-999.0,-999,-99.99,,,-99.99,,2013-09-21 04:54:00,
2013-09-20 21:00:00,-999.0,-99.9,28.68,North,10,9.0,-999.0,-999,-99.99,,,-99.99,,2013-09-21 05:00:00,
2013-09-20 21:23:00,-999.0,-99.9,28.68,North,10,9.0,-999.0,-999,-99.99,,,-99.99,,2013-09-21 05:23:00,
2013-09-20 21:34:00,-999.0,-99.9,28.68,North,10,9.0,-999.0,-999,-99.99,,,-99.99,,2013-09-21 05:34:00,
2013-09-20 21:44:00,-999.0,-99.9,28.68,North,10,9.0,-999.0,-999,-99.99,,,-99.99,,2013-09-21 05:44:00,
2013-09-20 21:53:00,-999.0,-99.9,28.68,North,10,9.0,-999.0,-999,-99.99,,,-99.99,,2013-09-21 05:53:00,
2013-09-20 22:00:00,49.0,49.0,28.70,NNW,340,10.0,-999.0,97,-99.99,,,-99.99,,2013-09-21 06:00:00,
2013-09-20 22:42:00,49.0,49.0,28.70,NNW,340,10.0,-999.0,97,-99.99,,,-99.99,,2013-09-21 06:42:00,
2013-09-20 22:52:00,49.0,49.0,28.70,NNW,340,10.0,-999.0,97,-99.99,,,-99.99,,2013-09-21 06:52:00,
2013-09-20 23:00:00,-999.0,-99.9,28.78,North,10,11.0,-999.0,-999,-99.99,,,-99.99,,2013-09-21 07:00:00,
2013-09-20 23:22:00,-999.0,-99.9,28.78,North,10,11.0,-999.0,-999,-99.99,,,-99.99,,2013-09-21 07:22:00,
2013-09-20 23:32:00,-999.0,-99.9,28.78,North,10,11.0,-999.0,-999,-99.99,,,-99.99,,2013-09-21 07:32:00,
2013-09-20 23:42:00,-999.0,-99.9,28.78,North,10,11.0,-999.0,-999,-99.99,,,-99.99,,2013-09-21 07:42:00,
2013-09-20 23:52:00,-999.0,-99.9,28.78,North,10,11.0,-999.0,-999,-99.99,,,-99.99,,2013-09-21 07:52:00,